Regional Weather Roundup
Issued by NWS Upton, NY

Current Version | Previous Version | Graphics & Text | Print | Product List | Glossary Off
Versions: 1 2 3 4 5 6 7 8 9 10 11 12 13 14 15 16 17 18 19 20 21 22 23 24 25 26 27 28

000
ASUS41 KOKX 201708
RWROKX

REGIONAL WEATHER ROUNDUP
NATIONAL WEATHER SERVICE NEW YORK NY
1200 PM EST MON FEB 20 2017

NOTE: "FAIR" INDICATES FEW OR NO CLOUDS BELOW 12,000 FEET WITH NO
SIGNIFICANT WEATHER AND/OR OBSTRUCTIONS TO VISIBILITY.

NYZ071-072-176-178-NJZ106-104-201800-
NEW YORK CITY METRO AREA

CITY           SKY/WX    TMP DP  RH WIND       PRES   REMARKS
Central Park   NOT AVBL
Wall St Helipt NOT AVBL
LaGuardia APRT MOSUNNY   52  26  36 NW13      30.18F
Kennedy INTL   MOSUNNY   54  27  35 N10       30.19F
Breezy Point     N/A     50 N/A N/A NW8         N/A
Newark/Liberty MOSUNNY   54  24  31 VRB7G16   30.19F
Teterboro      SUNNY     52  29  41 NW13      30.19F
$$

NYZ177-179-078>081-201800-
LONG ISLAND NEW YORK

CITY           SKY/WX    TMP DP  RH WIND       PRES   REMARKS
Jones Beach      N/A     48 N/A N/A NW13        N/A
Matinecock PT  NOT AVBL
Farmingdale    SUNNY     52  28  39 NW10      30.18S
MacArthur/ISP  SUNNY     51  28  41 N14       30.17S
Shirley        SUNNY     49  23  36 NW18G24   30.18S
Westhampton    SUNNY     49  26  41 NW16      30.18S
Southampton    NOT AVBL
Bridgehampton  NOT AVBL
East Hampton     N/A     47  28  48 NW14G21   30.14F
Montauk          N/A     47  31  53 NW8       30.15F
$$

NYZ052-065-067-201800-
HUDSON VALLEY

CITY           SKY/WX    TMP DP  RH WIND       PRES   REMARKS
White Plains   MOSUNNY   50  25  37 N13       30.16F
Newburgh       NOT AVBL
Montgomery     SUNNY     49  26  41 N7        30.17S
Poughkeepsie   SUNNY     46  24  42 N9        30.19F
Albany         MOSUNNY   41  20  43 NW12      30.24R
$$

NJZ001-105-106-008-010-013-015-019>022-104-201800-
NEW JERSEY

CITY           SKY/WX    TMP DP  RH WIND       PRES   REMARKS
Newark/Liberty MOSUNNY   54  24  31 VRB7G16   30.19F
Teterboro      SUNNY     52  29  41 NW13      30.19F
Caldwell       SUNNY     51  22  31 NW13      30.20F
Somerville     SUNNY     52  24  33 N10G18    30.20F
Linden         NOT AVBL
Sussex         SUNNY     49  22  34 W7        30.21F
Andover          N/A     48  22  35 N12G20    30.21F
Trenton        SUNNY     52  30  43 NW9       30.22S
Millville      SUNNY     56  32  40 NW16G24   30.21S
Atlantic City  MOSUNNY   55  30  38 N16G23    30.19F
Wrightstown    SUNNY     53  29  39 NW13G20   30.19S
Toms River     SUNNY     53  30  41 N14       30.20F
Belmar         SUNNY     54  29  38 N15       30.19F
$$

PAZ047>061-062-071-201800-
EASTERN PENNSYLVANIA

CITY           SKY/WX    TMP DP  RH WIND       PRES   REMARKS
Philadelphia   MOSUNNY   54  30  40 NW10G21   30.23F
Allentown      SUNNY     51  29  42 NW9       30.24F
Scranton       SUNNY     45  27  49 NW13G20   30.25S
$$

CTZ002-004>006-009-010-012-RIZ004-006-007-MAZ004-011-015-201800-
SOUTHERN NEW ENGLAND
 IN CT

CITY           SKY/WX    TMP DP  RH WIND       PRES   REMARKS
Bradley INTL   MOSUNNY   44  24  45 NE8       30.16F
Hartford       SUNNY     45  25  45 NE9       30.16F
Danbury        SUNNY     45  20  36 N10       30.19S
Wtrbury/Oxford SUNNY     43  21  42 N9G18     30.18S
Bridgeport     SUNNY     50  17  27 NW17G26   30.17F
Meriden        SUNNY     47  19  33 NW16      30.16F
New Haven      MOSUNNY   48  19  31 NW12G18   30.16F
Chester          N/A     45  23  42 N8G15     30.15S
Groton         MOSUNNY   49  24  37 N13G20    30.14S
Wilimantic     SUNNY     46  20  35 N15G21    30.16S

 IN RI

CITY           SKY/WX    TMP DP  RH WIND       PRES   REMARKS
Providence     MOSUNNY   46  18  32 N15       30.14S
Block Island   SUNNY     47  28  47 NW9       30.13F
Westerly       SUNNY     49  21  33 N10       30.14S
 IN MA

CITY           SKY/WX    TMP DP  RH WIND       PRES   REMARKS
Boston         MOSUNNY   42  21  43 NW9G17    30.15S
Worcester      SUNNY     39  15  37 NW13      30.12S WCI  31
Westfield      SUNNY     43  21  41 NE8       30.17R
Provincetown   CLOUDY    38  26  62 N15       30.14S WCI  29
Nantucket      PTSUNNY   44  28  53 N18       30.11S
$$

ANZ330-335-338-340-345-350-353-355-201800-
COASTAL MARINE OBSERVATIONS


STATION/POSITION TIME  SKY/WX   TEMP    WIND        PRES    VSBY  WAVE
                                AIR SEA DIR/SP/G                  HT/PER
                 (UTC)          (F)     (DEG/KT/KT) (MB)    (MI)  (FT/S)
NY HARB ENTRANCE 1550            44 42  310/ 14/ 16 1022.1          1/ 3
20 S FIRE ISLAND 1650            42 40  310/ 10/ 10 1021.9          2/ 8
GREAT SOUTH BAY  NOT AVBL
23 SSW MONTAUK P 1550            44 43              1021.4          2/ 8
15 E BARNEGAT LI 1630               43                N/A           2/ 9
HUDSON CANYON    1550               50              1020.9          4/ 4
KINGS POINT      1642            46 38              1022.2
EXECUTION ROCKS  NOT AVBL
CENTRAL LI SOUND 1630            41     280/  6/  6   N/A           1/ 2
EASTERN LI SOUND NOT AVBL
ROBBINS REEF     1648            49     340/  4/  5 1022.7
$$


>>>>>>>>>>>>>>>>>>>>>>>>>>>> KEY <<<<<<<<<<<<<<<<<<<<<<<<<<<
>                                                          <
>     SKY/WX - Sky Condition/Present Weather               <
>     TMP    - Temperature in Fahrenheit                   <
>     DP     - Dew Point in Fahrenheit                     <
>     RH     - Relative Humidity in Percent                <
>     WIND   - Direction (from) and Speed in MPH           <
>     PRES   - Mean Sea Level Pressure (inches of Hg)      <
>     WCI    - Wind Chill Index                            <
>     VSB    - VISIBILITY IN MILES                         <
>     HX     - HEAT INDEX                                  <
>     TC     - TEMPERATURE IN CELSIUS                      <
>     VRB    - VARIABLE WIND DIRECTION                     <
>                                                          <
>>>>>>>>>>>>>>>>>>>>>>>>>>>> KEY <<<<<<<<<<<<<<<<<<<<<<<<<<<




USA.gov is the U.S. government's official web portal to all federal, state and local government web resources and services.